Regional Weather Roundup
Issued by NWS

Home | Current Version | Previous Version | Graphics & Text | Print | Product List | Glossary On
Versions: 1 2 3 4 5 6 7 8 9 10 11 12 13 14 15 16 17 18 19 20 21 22 23 24 25 26 27 28 29 30 31 32 33 34 35 36 37 38 39 40 41 42 43 44 45 46 47 48 49 50
000
ASUS43 KFSD 230802
RWRSD

WEATHER ROUNDUP FOR SOUTH DAKOTA
NATIONAL WEATHER SERVICE SIOUX FALLS SD
300 AM CDT THU MAR 23 2017

NOTE: "FAIR" INDICATES FEW OR NO CLOUDS BELOW 12,000 FEET WITH NO
SIGNIFICANT WEATHER AND/OR OBSTRUCTIONS TO VISIBILITY.


SDZ001>005-009-010-012>017-230900-
NORTHWEST AND NORTH CENTRAL SOUTH DAKOTA

CITY           SKY/WX    TMP DP  RH WIND       PRES   REMARKS
BUFFALO          N/A     42  36  79 NE8       29.67F
FAITH            N/A     43  37  79 S15       29.71F
MOBRIDGE       CLOUDY    44  30  57 SE14      29.76F
$$

SDZ012>016-024>037-041>051-057-063-072>074-230900-
SOUTHWEST AND SOUTH CENTRAL SOUTH DAKOTA

CITY           SKY/WX    TMP DP  RH WIND       PRES   REMARKS
RAPID CTY ARPT CLOUDY    49  38  65 S7        29.71F
PIERRE         MOCLDY    43  30  60 SE14      29.81F
CUSTER         CLOUDY    41  35  79 CALM      29.77F
PHILIP         PTCLDY    47  35  63 SE5       29.74F
PINE RIDGE     PTCLDY    48  36  63 SW12G23   29.75F
SPEARFISH      MOCLDY    48  41  76 SE6       29.73F
WINNER         FAIR      47  29  49 S24G35    29.83F
$$

SDZ004>011-016>023-039-040-230900-
NORTHEAST SOUTH DAKOTA

CITY           SKY/WX    TMP DP  RH WIND       PRES   REMARKS
ABERDEEN       CLOUDY    37  26  64 S22G31    29.90F
WATERTOWN      CLOUDY    35  26  69 S18G24    29.96F WCI  24
BROOKINGS      CLOUDY    38  25  59 S20G28    30.01F
SISSETON         N/A     33  27  78 S16       29.97F WCI  23
$$

SDZ017-020-022-023-036>040-048>070-230900-
SOUTHEAST SOUTH DAKOTA

CITY           SKY/WX    TMP DP  RH WIND       PRES   REMARKS
SIOUX FALLS    CLOUDY    41  26  55 S16       30.04F
HURON          CLOUDY    40  28  62 S16G23    29.93F
CHAMBERLAIN    PTCLDY    41  29  63 E7        29.88F
MITCHELL       CLOUDY    42  29  59 S20       29.95F
YANKTON        CLOUDY    43  27  52 SE18G24   30.00F
$$

ABBREVIATIONS USED IN REMARKS
   TC - TEMPERATURE IN CELSIUS
  WCI - WIND CHILL INDEX
   HX - HEAT INDEX
  VSB - VISIBILITY





USA.gov is the U.S. government's official web portal to all federal, state and local government web resources and services.